TimeCDT,TemperatureF,Dew PointF,Humidity,Sea Level PressureIn,VisibilityMPH,Wind Direction,Wind SpeedMPH,Gust SpeedMPH,PrecipitationIn,Events,Conditions,WindDirDegrees,DateUTC
12:15 AM,62.6,41.0,45,29.99,10.0,SSW,6.9,-,N/A,,Clear,200,2013-03-16 05:15:00
12:55 AM,62.6,42.8,48,29.98,10.0,SSW,8.1,-,N/A,,Clear,200,2013-03-16 05:55:00
1:15 AM,62.6,42.8,48,29.98,10.0,SW,8.1,-,N/A,,Clear,220,2013-03-16 06:15:00
1:35 AM,60.8,42.8,52,29.98,10.0,SSW,8.1,-,N/A,,Clear,210,2013-03-16 06:35:00
1:55 AM,60.8,42.8,52,29.98,10.0,SSW,6.9,-,N/A,,Clear,210,2013-03-16 06:55:00
2:15 AM,60.8,42.8,52,29.98,10.0,SW,5.8,-,N/A,,Clear,220,2013-03-16 07:15:00
2:35 AM,59.0,42.8,55,29.98,10.0,SSW,8.1,-,N/A,,Clear,210,2013-03-16 07:35:00
2:55 AM,59.0,42.8,55,29.98,10.0,SSW,6.9,-,N/A,,Clear,210,2013-03-16 07:55:00
3:15 AM,59.0,42.8,55,29.98,10.0,SW,5.8,-,N/A,,Clear,220,2013-03-16 08:15:00
3:35 AM,59.0,42.8,55,29.98,10.0,SW,6.9,-,N/A,,Clear,220,2013-03-16 08:35:00
3:55 AM,59.0,42.8,55,29.97,10.0,SSW,8.1,-,N/A,,Clear,210,2013-03-16 08:55:00
4:15 AM,57.2,42.8,59,29.97,10.0,SW,8.1,-,N/A,,Clear,220,2013-03-16 09:15:00
4:35 AM,57.2,42.8,59,29.98,10.0,SW,4.6,-,N/A,,Clear,230,2013-03-16 09:35:00
4:55 AM,55.4,44.6,67,29.98,10.0,SW,4.6,-,N/A,,Clear,230,2013-03-16 09:55:00
5:15 AM,55.4,44.6,67,29.99,10.0,Calm,Calm,-,N/A,,Clear,0,2013-03-16 10:15:00
5:35 AM,55.4,44.6,67,29.99,10.0,SW,3.5,-,N/A,,Clear,230,2013-03-16 10:35:00
5:55 AM,55.4,44.6,67,30.00,10.0,SSW,4.6,-,N/A,,Clear,210,2013-03-16 10:55:00
6:15 AM,53.6,46.4,77,30.00,10.0,SSW,4.6,-,N/A,,Clear,210,2013-03-16 11:15:00
6:35 AM,53.6,46.4,77,30.00,10.0,SSW,4.6,-,N/A,,Clear,210,2013-03-16 11:35:00
6:55 AM,53.6,46.4,77,29.99,10.0,SSW,5.8,-,N/A,,Clear,210,2013-03-16 11:55:00
7:15 AM,53.6,48.2,82,30.00,10.0,SW,4.6,-,N/A,,Clear,220,2013-03-16 12:15:00
7:35 AM,53.6,48.2,82,30.00,10.0,SW,4.6,-,N/A,,Clear,220,2013-03-16 12:35:00
7:55 AM,53.6,50.0,88,30.01,10.0,SSW,6.9,-,N/A,,Clear,210,2013-03-16 12:55:00
8:15 AM,55.4,50.0,82,30.01,10.0,SSW,5.8,-,N/A,,Clear,210,2013-03-16 13:15:00
8:35 AM,57.2,51.8,82,30.01,10.0,SW,8.1,-,N/A,,Clear,230,2013-03-16 13:35:00
8:55 AM,59.0,51.8,77,30.02,10.0,SW,6.9,-,N/A,,Clear,220,2013-03-16 13:55:00
9:15 AM,59.0,51.8,77,30.02,10.0,SW,10.4,17.3,N/A,,Clear,230,2013-03-16 14:15:00
9:35 AM,60.8,51.8,72,30.02,10.0,WSW,8.1,17.3,N/A,,Clear,240,2013-03-16 14:35:00
9:55 AM,62.6,51.8,68,30.02,10.0,WSW,9.2,17.3,N/A,,Clear,250,2013-03-16 14:55:00
10:15 AM,64.4,50.0,59,30.02,10.0,SW,9.2,18.4,N/A,,Clear,230,2013-03-16 15:15:00
10:35 AM,64.4,50.0,59,30.02,10.0,SW,13.8,21.9,N/A,,Clear,220,2013-03-16 15:35:00
10:55 AM,66.2,50.0,56,30.02,10.0,WSW,6.9,17.3,N/A,,Clear,240,2013-03-16 15:55:00
11:15 AM,68.0,46.4,46,30.01,10.0,WSW,12.7,23.0,N/A,,Clear,240,2013-03-16 16:15:00
11:35 AM,69.8,46.4,43,30.01,10.0,WSW,9.2,21.9,N/A,,Clear,250,2013-03-16 16:35:00
11:55 AM,69.8,44.6,40,30.00,10.0,SW,10.4,23.0,N/A,,Clear,220,2013-03-16 16:55:00
12:15 PM,71.6,44.6,38,30.00,10.0,West,12.7,19.6,N/A,,Clear,260,2013-03-16 17:15:00
12:35 PM,71.6,44.6,38,29.99,10.0,WSW,11.5,23.0,N/A,,Clear,250,2013-03-16 17:35:00
12:55 PM,73.4,44.6,36,29.98,10.0,SW,8.1,19.6,N/A,,Clear,220,2013-03-16 17:55:00
1:15 PM,73.4,44.6,36,29.98,10.0,SW,11.5,18.4,N/A,,Clear,220,2013-03-16 18:15:00
1:35 PM,75.2,44.6,34,29.96,10.0,West,12.7,17.3,N/A,,Clear,270,2013-03-16 18:35:00
1:55 PM,75.2,42.8,31,29.95,10.0,WSW,12.7,16.1,N/A,,Clear,250,2013-03-16 18:55:00
2:15 PM,75.2,44.6,34,29.95,10.0,West,12.7,17.3,N/A,,Clear,260,2013-03-16 19:15:00
2:35 PM,75.2,44.6,34,29.94,10.0,WSW,9.2,16.1,N/A,,Clear,250,2013-03-16 19:35:00
2:55 PM,75.2,44.6,34,29.93,10.0,SSW,8.1,-,N/A,,Clear,210,2013-03-16 19:55:00
3:15 PM,77.0,44.6,32,29.92,10.0,SW,10.4,-,N/A,,Clear,230,2013-03-16 20:15:00
3:35 PM,77.0,44.6,32,29.91,10.0,SW,10.4,-,N/A,,Clear,230,2013-03-16 20:35:00
3:55 PM,77.0,44.6,32,29.91,10.0,SW,8.1,-,N/A,,Clear,230,2013-03-16 20:55:00
4:15 PM,77.0,44.6,32,29.90,10.0,West,6.9,-,N/A,,Clear,270,2013-03-16 21:15:00
4:35 PM,77.0,44.6,32,29.90,10.0,SW,8.1,-,N/A,,Clear,220,2013-03-16 21:35:00
4:55 PM,77.0,44.6,32,29.89,10.0,WSW,5.8,-,N/A,,Clear,250,2013-03-16 21:55:00
5:15 PM,77.0,44.6,32,29.89,10.0,SSW,6.9,-,N/A,,Clear,210,2013-03-16 22:15:00
5:35 PM,77.0,44.6,32,29.89,10.0,SW,6.9,-,N/A,,Clear,230,2013-03-16 22:35:00
5:55 PM,77.0,44.6,32,29.89,10.0,SSW,8.1,-,N/A,,Clear,210,2013-03-16 22:55:00
6:15 PM,75.2,41.0,29,29.89,10.0,SSW,4.6,-,N/A,,Clear,210,2013-03-16 23:15:00
6:35 PM,73.4,42.8,33,29.89,10.0,SSW,4.6,-,N/A,,Clear,210,2013-03-16 23:35:00
6:55 PM,71.6,42.8,35,29.89,10.0,Calm,Calm,-,N/A,,Clear,0,2013-03-16 23:55:00
7:15 PM,66.2,46.4,49,29.89,10.0,Calm,Calm,-,N/A,,Clear,0,2013-03-17 00:15:00
7:35 PM,64.4,46.4,52,29.89,10.0,Calm,Calm,-,N/A,,Clear,0,2013-03-17 00:35:00
7:55 PM,62.6,46.4,55,29.90,10.0,Calm,Calm,-,N/A,,Clear,0,2013-03-17 00:55:00
8:35 PM,60.8,46.4,59,29.91,10.0,Calm,Calm,-,N/A,,Clear,0,2013-03-17 01:35:00
8:55 PM,59.0,46.4,63,29.92,10.0,Calm,Calm,-,N/A,,Clear,0,2013-03-17 01:55:00
9:35 PM,59.0,48.2,67,29.93,10.0,Calm,Calm,-,N/A,,Clear,0,2013-03-17 02:35:00
9:55 PM,60.8,48.2,63,29.93,10.0,SSE,3.5,-,N/A,,Clear,160,2013-03-17 02:55:00
10:15 PM,60.8,48.2,63,29.93,10.0,South,3.5,-,N/A,,Clear,170,2013-03-17 03:15:00
10:35 PM,60.8,48.2,63,29.93,10.0,South,4.6,-,N/A,,Clear,180,2013-03-17 03:35:00
10:55 PM,60.8,48.2,63,29.93,10.0,South,3.5,-,N/A,,Clear,190,2013-03-17 03:55:00
11:15 PM,60.8,48.2,63,29.94,10.0,Calm,Calm,-,N/A,,Clear,0,2013-03-17 04:15:00
11:35 PM,60.8,48.2,63,29.94,10.0,South,4.6,-,N/A,,Clear,190,2013-03-17 04:35:00
11:55 PM,60.8,50.0,68,29.93,10.0,SSW,6.9,-,N/A,,Clear,200,2013-03-17 04:55:00